Regional Weather Roundup
Issued by NWS

Home | Current Version | Previous Version | Text Only | Print | Product List | Glossary Off
Versions: 1 2 3 4 5 6 7 8 9 10 11 12 13 14 15 16 17 18 19 20 21 22 23 24 25 26 27 28 29 30 31 32 33 34 35 36 37 38 39 40 41 42 43 44 45 46 47 48 49 50

000
ASUS43 KDTX 081101
RWRMI
MICHIGAN HOURLY REGIONAL WEATHER ROUNDUP
NATIONAL WEATHER SERVICE DETROIT/PONTIAC MI
600 AM EST THU DEC 08 2016

NOTE: "FAIR" INDICATES FEW OR NO CLOUDS BELOW 12,000 FEET WITH NO
SIGNIFICANT WEATHER AND/OR OBSTRUCTION TO VISIBILITY.

MIZ047>049-052>055-059>063-066>070-074>076-081>083-081200-
SOUTHEAST LOWER MICHIGAN

CITY           SKY/WX    TMP DP  RH WIND       PRES   REMARKS
ADRIAN         CLOUDY    26  18  71 NW15G23   30.05S WCI  14
ALMA           FLURRIES  26  17  68 W15G22    29.99S WCI  14
ANN ARBOR      CLOUDY    27  18  69 W17G26    30.01R WCI  14
BAD AXE        CLOUDY    26  17  68 W20G26    29.93S WCI  13
CARO           CLOUDY    26  19  73 W22       29.96R WCI  12
DETROIT CITY   CLOUDY    29  18  63 W16G28    30.01R WCI  17
DETROIT        FLURRIES  29  18  63 W17G23    30.02R WCI  17
FLINT          CLOUDY    27  19  72 W14G23    29.98S WCI  16
GROSSE ILE     CLOUDY    28  19  66 W16G25    30.01S WCI  17
HILLSDALE      FLURRIES  23  19  86 W12G18    30.02R WCI  12
HOWELL         CLOUDY    27  19  71 W20G28    29.99S WCI  14

CITY           SKY/WX    TMP DP  RH WIND       PRES   REMARKS
JACKSON        CLOUDY    26  17  68 W21G30    30.01S WCI  12
LAMBERTVILLE   CLOUDY    28  19  68 W13G24    30.06R WCI  18
LANSING        CLOUDY    27  17  66 W20G28    30.01R WCI  13
LAPEER         NOT AVBL
MASON          CLOUDY    27  19  74 W18G32    30.01S WCI  13
MONROE         CLOUDY    28  19  70 W17       30.04R WCI  16
MT. CLEMENS    CLOUDY    29  19  64 W13       29.97R WCI  19
PONTIAC        FLURRIES  27  19  72 W16G26    29.97R WCI  15
PORT HOPE        N/A     28  18  66 W12G25    29.90S WCI  18
PORT HURON     CLOUDY    28  19  69 W8        29.97S WCI  20
TRI CITIES     CLOUDY    26  18  71 W21G26    29.97S WCI  12
MIDLAND        FLURRIES  27  15  60 W14G20    29.96S WCI  16
TROY           CLOUDY    29  18  62 W15G22    30.01R WCI  18
SAGINAW HB     CLOUDY    28  18  64 W21G26    29.97R WCI  15
$$
MIZ043>046-050>051-056>058-064>065-071>073-077>080-081200-
SOUTHWEST LOWER MICHIGAN

CITY           SKY/WX    TMP DP  RH WIND       PRES   REMARKS
BATTLE CREEK   CLOUDY    27  18  69 W21G35    30.03S WCI  13
BENTON HARBOR  CLOUDY    27  17  66 W18G26    30.10S WCI  14
BIG RAPIDS     FLURRIES  25  17  70 W10G17    29.95S WCI  15
COLDWATER      FLURRIES  25  19  77 W14G22    30.05S WCI  13
FREMONT        CLOUDY    25  13  60 W16       30.00S WCI  12
HOLLAND        FLURRIES  28  19  69 W16G26    30.05S WCI  16
GRAND RAPIDS   CLOUDY    26  17  68 W20G25    30.02S WCI  12
IONIA          CLOUDY    26  18  71 W17G25    30.00R WCI  13
KALAMAZOO      CLOUDY    27  17  66 W12G24    30.05S WCI  17
LUDINGTON      FLURRIES  25  19  76 W13G22    29.99S WCI  14
MARSHALL       CLOUDY    27  19  72 W15G21    30.03S WCI  15
MOUNT PLEASANT FLURRIES  25  17  70 W10G18    29.96S WCI  15
MUSKEGON       FLURRIES  27  17  66 W16G24    30.03S WCI  15
SOUTH HAVEN    CLOUDY    28  19  71 W15G25    30.08S WCI  16
$$
MIZ016>042-081200-
NORTHERN LOWER MICHIGAN

CITY           SKY/WX    TMP DP  RH WIND       PRES   REMARKS
ALPENA         CLOUDY    27  16  63 SW15G23   29.85S WCI  15
BEAVER ISLAND  CLOUDY    27  21  80 W21G28    29.84S WCI  13
BELLAIRE       FLURRIES  26  19  74 SW8G20    29.90R WCI  18
CADILLAC       LGT SNOW  22  18  84 W10G16    29.88S WCI  11
CHARLEVOIX     FLURRIES  28  21  74 W21G30    29.88S WCI  15
FRANKFORT      CLOUDY    25  18  75 W15G25    29.95S WCI  13
GAYLORD        LGT SNOW  24  18  77 W16G25    29.83R WCI  11
GRAYLING       LGT SNOW  24  19  80 W9G16     29.87S WCI  14
HARBOR SPRINGS CLOUDY    29  24  82 W14G25    29.82S WCI  18
HOUGHTON LAKE  LGT SNOW  23  16  74 W17G24    29.89S WCI   9
MANISTEE       FLURRIES  25  17  72 W23G29    29.97R WCI  10
OSCODA         FLURRIES  28  16  61 MISG      29.89F
PELLSTON       LGT SNOW  27  23  85 W7        29.82S FOG     WCI  19
ROGERS CITY    FLURRIES  28  20  71 SW12G18   29.83S WCI  18
TRAVERSE CITY  CLOUDY    26  17  68 W15G26    29.91S WCI  14
$$
MIZ007>008-015-081200-
EASTERN UPPER MICHIGAN

CITY           SKY/WX    TMP DP  RH WIND       PRES   REMARKS
KINROSS        CLOUDY    22  15  75 W12G20    29.77R WCI  10
MACKINAC ISLAN LGT SNOW  28  23  81 W26G33    29.79S WCI  13
NEWBERRY       CLOUDY    21  18  87 SW15G25   29.78R WCI   7
S. S. MARIE    LGT SNOW  23  18  81 SW12      29.75S WCI  12
MUNISING         N/A     23  18  81 SW8G16    29.82S WCI  14
$$
MIZ004>006-011>014-085-081200-
CENTRAL UPPER MICHIGAN

CITY           SKY/WX    TMP DP  RH WIND       PRES   REMARKS
MANISTIQUE     CLOUDY    21  15  78 W13G20    29.83S WCI   9
ESCANABA       CLOUDY    21  13  71 W17G26    29.89S WCI   7
MENOMINEE      CLOUDY    19  11  70 MISG        N/A
SAWYER-GWINN   LGT SNOW  19  15  81 W13       29.84R WCI   7
$$
MIZ001>003-009>011-084-081200-
WESTERN UPPER MICHIGAN

CITY           SKY/WX    TMP DP  RH WIND       PRES   REMARKS
IRON MOUNTAIN  CLOUDY    18   9  68 W9        29.88F WCI   7
HOUGHTON       LGT SNOW  27  22  81 N16G25    29.85R WCI  15
IRONWOOD       LGT SNOW  25  22  88 NW13G23   29.95R FOG     WCI  14
$$

ABBREVIATIONS USED IN REMARKS
   TC - TEMPERATURE IN CELSIUS
  WCI - WIND CHILL INDEX
   HX - HEAT INDEX
  VSB - VISIBILITY





USA.gov is the U.S. government's official web portal to all federal, state and local government web resources and services.